{"data":{"norad_id":57227,"epoch":"2026-09-20T13:56:55.953024Z","epoch_age_seconds":113906,"freshness":"FRESH","line1":"1 57227U 23094K   26263.58120316  .00000140  00000+0  14629-4 0  9996","line2":"2 57227  43.0044  13.3083 0002066 268.9777  91.0838 15.27573790176883","mean_motion":15.2757379,"eccentricity":0.0002066,"inclination_deg":43.0044,"raan_deg":13.3083,"arg_perigee_deg":268.9777,"mean_anomaly_deg":91.0838,"bstar":1.4629e-5,"rev_number":17688,"period_min":94.267131933443,"perigee_km":481.65016618751,"apogee_km":484.48521596586,"semimajor_km":6861.2046910767,"source":"CELESTRAK","updated_at":"2026-09-21T09:00:33.585473Z"}}